Whiting Fld NAS, FL

2:16 AM CST on November 21, 2019 (GMT -0600)
Whiting Field Naval Air Station (North)

Weather History for KNSE - September, 2019

Change the Weather History Date:

Sunday, September 22, 2019

  Actual Average Record
Temperature  
Mean Temperature 76 °F -  
Max Temperature 91 °F 82 °F 93 °F (2010)
Min Temperature 62 °F 66 °F 55 °F (1999)
Cooling Degree Days 11    
Growing Degree Days 26 (Base 50)    
Moisture  
Dew Point 63 °F    
Average Humidity 71    
Maximum Humidity 100    
Minimum Humidity 36    
Precipitation  
Precipitation 0.00 in - - ()
Sea Level Pressure  
Sea Level Pressure 30.08 in    
Wind  
Wind Speed 5 mph (ENE)    
Max Wind Speed 13 mph    
Max Gust Speed 18 mph    
Visibility 10 miles    
Events      
Averages and records for this station are not official NWS values.
T = Trace of Precipitation, MM = Missing Value Source: NWS Daily Summary

Daily Weather History Graph

Daily Weather History Graph

Search for Another Location

Airport or City:

Astronomy

Sep. 22, 2019 Rise Set
Actual Time 6:36 AM CDT 6:44 PM CDT
Civil Twilight 6:12 AM CDT 7:08 PM CDT
Nautical Twilight 5:44 AM CDT 7:37 PM CDT
Astronomical Twilight 5:15 AM CDT 8:05 PM CDT
Moon No Moon Rise 2:14 PM CDT (9/22)
Length of Visible Light 12h 56m
Length of Day
12h 08m
Last Quarter, 44% of the Moon is Illuminated
Sep 22
Last Quarter
Sep 28
New
Oct 5
First Quarter
Oct 13
Full
Oct 21
Last Quarter

Hourly Weather History & Observations

Time (CDT) Temp. Heat Index Dew Point Humidity Pressure Visibility Wind Dir Wind Speed Gust Speed Precip Events Conditions
12:56 AM 64.0 °F - 63.0 °F 96% 30.09 in 10.0 mi North 3.5 mph - N/A   Clear
1:56 AM 64.0 °F - 63.0 °F 96% 30.09 in 10.0 mi North 3.5 mph - N/A   Mostly Cloudy
2:56 AM 64.0 °F - 63.0 °F 96% 30.09 in 10.0 mi Calm Calm - N/A   Partly Cloudy
3:56 AM 64.0 °F - 63.0 °F 96% 30.09 in 10.0 mi NE 3.5 mph - N/A   Clear
4:56 AM 64.0 °F - 62.1 °F 93% 30.09 in 10.0 mi ENE 4.6 mph - N/A   Clear
5:56 AM 62.1 °F - 62.1 °F 100% 30.11 in 10.0 mi ENE 3.5 mph - N/A   Clear
6:56 AM 62.1 °F - 61.0 °F 96% 30.12 in 10.0 mi ENE 3.5 mph - N/A   Clear
7:56 AM 70.0 °F - 66.0 °F 87% 30.12 in 10.0 mi ENE 5.8 mph - N/A   Clear
8:56 AM 77.0 °F - 66.9 °F 71% 30.13 in 10.0 mi East 9.2 mph - N/A   Clear
9:56 AM 82.9 °F 84.0 °F 63.0 °F 51% 30.13 in 10.0 mi East 10.4 mph - N/A   Clear
10:56 AM 86.0 °F 85.4 °F 59.0 °F 40% 30.13 in 10.0 mi ENE 9.2 mph 17.3 mph N/A   Clear
11:56 AM 87.1 °F 85.9 °F 57.0 °F 36% 30.10 in 10.0 mi ENE 9.2 mph 18.4 mph N/A   Clear
12:56 PM 88.0 °F 87.1 °F 59.0 °F 37% 30.08 in 10.0 mi Variable 6.9 mph - N/A   Clear
1:56 PM 89.1 °F 88.2 °F 59.0 °F 36% 30.06 in 10.0 mi Variable 3.5 mph 16.1 mph N/A   Unknown
2:56 PM 90.0 °F 89.7 °F 60.1 °F 37% 30.03 in 10.0 mi Variable 5.8 mph - N/A   Scattered Clouds
3:56 PM 90.0 °F 89.7 °F 60.1 °F 37% 30.02 in 10.0 mi Variable 4.6 mph - N/A   Mostly Cloudy
4:56 PM 86.0 °F 87.3 °F 64.0 °F 48% 30.02 in 10.0 mi South 12.7 mph - N/A   Partly Cloudy
5:56 PM 82.9 °F 84.6 °F 64.9 °F 54% 30.03 in 10.0 mi SSW 9.2 mph - N/A   Clear
6:56 PM 79.0 °F - 64.9 °F 62% 30.04 in 10.0 mi South 8.1 mph - N/A   Clear
7:56 PM 75.0 °F - 64.9 °F 71% 30.05 in 10.0 mi SSW 3.5 mph - N/A   Clear
8:56 PM 70.0 °F - 64.9 °F 84% 30.06 in 10.0 mi Calm Calm - N/A   Clear
9:56 PM 69.1 °F - 66.0 °F 90% 30.07 in 10.0 mi Calm Calm - N/A   Clear
10:56 PM 66.9 °F - 64.9 °F 93% 30.07 in 10.0 mi NW 3.5 mph - N/A   Clear
11:56 PM 66.0 °F - 64.0 °F 93% 30.06 in 10.0 mi NNW 3.5 mph - N/A   Clear